Epoch = 2000 Oct. 23.0 TT
T = 2000 Oct. 4.6044 TT Peri. = 11.8524
e = 0.431372 Node = 24.4340 2000.0
q = 2.154867 AU Incl. = 19.3690
a = 3.789587 AU n = 0.1336030 P = 7.38 years
星図
光度変化
m1 = 12.5 + 5 logΔ + 15.0 log r
軌道要素は、IAUC 8917に掲載されたものです。
星図は StellaNavigator Ver.2.0 for Windows
(アストロアーツ
編著 / アスキー出版局刊) で作成したものです。
光度グラフはComet for
Windowsで作成したものです。
Copyright(C) Seiichi Yoshida (comet@aerith.net). All rights reserved.